Regional Weather Roundup
Issued by NWS Jackson, KY

Home | Current Version | Previous Version | Text Only | Print | Product List | Glossary Off
Versions: 1 2 3 4 5 6 7 8 9 10 11 12 13 14 15 16 17 18 19 20 21 22 23 24 25 26 27 28 29 30 31 32 33 34 35 36 37 38 39 40 41 42 43 44 45 46 47 48 49 50

000
ASUS43 KJKL 290310
RWRJKL

EAST KENTUCKY HOURLY WEATHER ROUNDUP
NATIONAL WEATHER SERVICE JACKSON KY
1100 PM EDT THU JUL 28 2016

NOTE: "FAIR" INDICATES FEW OR NO CLOUDS BELOW 12,000 FEET WITH
NO SIGNIFICANT WEATHER AND/OR OBSTRUCTIONS TO VISIBILITY.

* THESE REPORTS ARE NOT UNDER NWS QUALITY CONTROL AND MAY NOT
  REPORT WEATHER SUCH AS PRECIPITATION AND FOG.

KYZ079-080-083-085-087-088-110-112-115-119-120-290400
...EASTERN KENTUCKY...

CITY           SKY/WX    TMP DP  RH WIND       PRES   REMARKS
JACKSON        CLOUDY    70  68  93 CALM      29.98S FOG
LONDON         CLEAR     71  68  90 CALM      29.98S
SOMERSET*      PTCLDY    68  68 100 CALM      29.98S FOG
MONTICELLO*    CLEAR    N/A N/A N/A N8        29.99S FOG
WILLIAMSBURG*  MOCLDY    70  70 100 CALM      29.99S
MIDDLESBORO*   MOCLDY    71  71 100 CALM      29.99S
HARLAN APT*      N/A     70  68  94 CALM      30.00S
PIKE CO APT*   MOCLDY    69  69 100 CALM      29.98S
BIG SANDY APT* FOG       71  71 100 CALM      29.97S VSB 3/4
MOREHEAD APT*  CLEAR     72  70  94 SW6       29.97S
ASHLAND*       PTCLDY    72  70  94 CALM      29.91S
$$

KYZ035-036-041-042-044-050-067-078-099-290400
...CENTRAL KENTUCKY...

CITY           SKY/WX    TMP DP  RH WIND       PRES   REMARKS
MT STERLING*   CLEAR     72  70  94 SW3       29.97S
FLEMING/MASON* PTCLDY    71  71  98 SW5       29.96R
DANVILLE*      CLEAR     70  70 100 CALM      29.96F
LEXINGTON      PTCLDY    73  70  90 S6        29.95S
FRANKFORT      LGT RAIN  76  71  85 VRB6      29.93S
LOUISVILLE     MOCLDY    78  66  66 E5        29.91R
LEBANON*         N/A     73  72  94 S3        29.95S
GLASGOW*       CLEAR     73  73 100 CALM      29.95S
BOWLING GREEN  CLOUDY    77  73  87 SE5       29.94S
$$

KYZ091>093-OHZ055-061-077-WVZ005-015-034-035-042-290400
...SOUTHERN OHIO/WEST VIRGINIA...

CITY           SKY/WX    TMP DP  RH WIND       PRES   REMARKS
COVINGTON      PTCLDY    76  73  91 CALM      29.92R
COLUMBUS       PTCLDY    72  72 100 CALM      29.91R
DAYTON         PTCLDY    75  66  73 SW7       29.92R
WILMINGTON     PTCLDY    71  70  96 S3        29.93R
HUNTINGTON       N/A     72  70  93 CALM      29.93S FOG
CHARLESTON     MOCLDY    71  69  93 W7        29.94R FOG
PINEVILLE*     CLOUDY    71  67  89 MISG      30.03S
BECKLEY        CLOUDY    68  66  93 NW5       30.00F
BLUEFIELD      LGT RAIN  67  65  93 W6        30.03F
LOGAN CO APT*  CLOUDY    70  68  94 CALM      29.96F
$$

VAZ002-007-008-TNZ017-027-036-066-071-290400
...SOUTHWEST VIRGINIA/EAST TENNESSEE...

CITY           SKY/WX    TMP DP  RH WIND       PRES   REMARKS
WISE*          CLOUDY    68  68 100 CALM      30.03F
JONESVILLE*    CLOUDY    70  70 100 W5        30.01F
ABINGDON*      DRIZZLE   71  70  97 CALM      29.99S
BRISTOL        LGT RAIN  71  69  93 CALM      29.97S
MORRISTOWN*    MOCLDY    72  70  94 NW6       29.98S
SEVIERVILLE*   CLOUDY    73  72  94 W3        29.98R
KNOXVILLE      CLOUDY    75  71  87 W5        29.97S
OAK RIDGE      CLOUDY    74  71  91 S3        29.99S
CROSSVILLE     CLOUDY    71  70  96 SW3       30.04R
NASHVILLE      MOCLDY    78  74  87 S5        29.95S
$$

...KEY TO REMARKS...
VSB - VISIBILITY IN MILES
WCI - WIND CHILL INDEX
HX  - HEAT INDEX

$$



USA.gov is the U.S. government's official web portal to all federal, state and local government web resources and services.